GW6561 Weather Reports


time (UTC)temp
C
wind
direction
speed
KPH
gust
KPH
rain 1hr
cm
rain 24hr
cm
rain mn
cm
humidity
%
barometer
mb
20260507021056 14 251 17.7 35.4 0.00 0.71 0.71 87 1012.0
20260507020555 14 155 9.7 29.0 0.00 0.71 0.71 87 1012.2
20260507020051 14 296 25.7 30.6 0.00 0.71 0.71 86 1012.0
20260507015550 14 281 20.9 27.4 0.00 0.71 0.71 86 1012.0
20260507015047 14 280 19.3 29.0 0.00 0.71 0.71 88 1012.1
20260507014543 14 295 16.1 20.9 0.05 0.71 0.71 90 1012.1
20260507014038 14 248 0.0 17.7 0.13 0.71 0.71 90 1012.3
20260507013535 14 286 14.5 14.5 0.05 0.71 0.71 90 1012.2
20260507013033 15 278 12.9 25.7 0.00 0.71 0.71 88 1012.2
20260507012530 15 298 16.1 27.4 0.00 0.71 0.71 88 1012.2
20260507012026 15 289 16.1 17.7 0.00 0.71 0.71 89 1012.4
20260507011524 15 262 0.0 24.1 0.00 0.71 0.71 89 1012.2
20260507011020 15 273 16.1 20.9 0.00 0.71 0.71 90 1011.9
20260507010514 15 268 12.9 17.7 0.00 0.71 0.71 90 1011.9
20260507010011 15 275 19.3 25.7 0.00 0.71 0.71 89 1011.9
20260507005509 15 285 16.1 19.3 0.00 0.71 0.71 90 1011.6
20260507005005 15 281 16.1 24.1 0.00 0.71 0.71 89 1011.6
20260507004502 15 292 19.3 27.4 0.00 0.71 0.71 90 1011.5
20260507003959 15 293 14.5 19.3 0.00 0.71 0.71 90 1011.7
20260507003454 15 278 12.9 20.9 0.00 0.71 0.71 91 1011.6
20260507002949 15 281 14.5 17.7 0.00 0.71 0.71 92 1011.6
20260507002447 16 285 11.3 17.7 0.00 0.71 0.71 92 1011.5
20260507001943 16 292 24.1 27.4 0.00 0.71 0.71 92 1011.3
20260507001439 16 278 19.3 27.4 0.00 0.71 0.71 94 1011.2
20260507000937 16 292 20.9 24.1 0.00 0.71 0.71 95 1010.8
20260507000435 16 290 17.7 20.9 0.00 0.71 0.71 96 1010.7
20260506235928 16 285 16.1 20.9 0.00 0.71 0.71 96 1010.6
20260506235426 16 286 11.3 24.1 0.00 0.71 0.71 96 1010.5
20260506234921 16 254 0.0 12.9 0.00 0.71 0.71 95 1010.2
20260506234420 16 261 12.9 14.5 0.00 0.71 0.71 95 1010.3
20260506233917 16 273 11.3 12.9 0.00 0.71 0.71 95 1010.2
20260506233413 16 226 0.0 16.1 0.00 0.71 0.71 95 1010.1
20260506232910 16 181 11.3 24.1 0.05 0.71 0.71 95 1010.1
20260506232406 16 224 16.1 20.9 0.13 0.71 0.71 94 1010.3
20260506231902 17 256 14.5 14.5 0.18 0.69 0.69 94 1010.2
20260506231400 17 235 0.0 19.3 0.36 0.69 0.69 93 1010.2
20260506230857 17 250 9.7 27.4 0.30 0.66 0.66 93 1010.3
20260506230353 17 252 9.7 19.3 0.00 0.61 0.61 92 1010.3
20260506225849 17 275 17.7 20.9 0.13 0.61 0.61 92 1010.2
20260506225347 17 259 16.1 66.0 0.23 0.61 0.61 91 1009.9
20260506224844 17 279 14.5 30.6 0.23 0.58 0.58 89 1010.1
20260506224341 17 250 14.5 16.1 0.18 0.56 0.56 90 1010.0
20260506223837 18 244 0.0 14.5 0.05 0.56 0.56 89 1010.0
20260506223333 18 249 11.3 16.1 0.00 0.53 0.53 88 1010.2
20260506222830 18 227 0.0 14.5 0.00 0.53 0.53 87 1010.0
20260506222326 18 217 0.0 16.1 0.00 0.53 0.53 87 1009.7
20260506221824 18 243 9.7 19.3 0.00 0.53 0.53 85 1010.0
20260506221321 18 251 12.9 16.1 0.00 0.53 0.53 85 1010.1
20260506220819 18 248 12.9 16.1 0.00 0.53 0.53 84 1010.0
20260506220319 18 244 11.3 27.4 0.00 0.53 0.53 84 1009.9
20260506215816 18 227 0.0 16.1 0.00 0.53 0.53 84 1009.9
20260506215312 18 272 14.5 25.7 0.00 0.53 0.53 83 1009.7
20260506214808 18 261 11.3 16.1 0.00 0.53 0.53 84 1009.6
20260506214305 18 256 0.0 19.3 0.00 0.53 0.53 83 1009.7
20260506213804 18 234 19.3 19.3 0.00 0.53 0.53 83 1009.5
20260506213300 18 222 16.1 20.9 0.00 0.53 0.53 83 1009.4
20260506212758 19 228 19.3 24.1 0.00 0.53 0.53 82 1009.6
20260506212253 19 248 24.1 24.1 0.00 0.53 0.53 81 1009.6
20260506211748 19 267 0.0 19.3 0.00 0.53 0.53 82 1009.5
20260506211245 20 247 12.9 41.8 0.00 0.53 0.53 80 1009.2
20260506210742 20 271 11.3 24.1 0.00 0.53 0.53 80 1009.5
20260506210239 20 258 12.9 19.3 0.00 0.53 0.53 80 1009.3
20260506205736 20 208 17.7 25.7 0.00 0.53 0.53 79 1009.2
20260506205232 20 184 0.0 16.1 0.00 0.53 0.53 80 1009.1
20260506204729 20 270 16.1 19.3 0.00 0.53 0.53 79 1009.2
20260506204226 20 230 17.7 51.5 0.00 0.53 0.53 78 1009.2
20260506203724 20 268 14.5 27.4 0.00 0.53 0.53 78 1009.0
20260506203221 20 281 16.1 27.4 0.00 0.53 0.53 81 1009.3
20260506202719 19 254 14.5 35.4 0.00 0.53 0.53 82 1009.3
20260506202215 20 209 43.5 43.5 0.00 0.53 0.53 79 1009.0
20260506201712 19 199 0.0 35.4 0.00 0.53 0.53 81 1009.4
20260506201208 19 245 12.9 25.7 0.00 0.53 0.53 82 1009.3
20260506200705 19 234 33.8 33.8 0.00 0.53 0.53 82 1009.4
20260506200202 19 256 14.5 45.1 0.00 0.53 0.53 82 1009.3
20260506195658 18 226 25.7 37.0 0.00 0.53 0.53 82 1009.3
20260506195155 18 263 14.5 29.0 0.00 0.53 0.53 84 1009.2
20260506194652 18 177 27.4 62.8 0.00 0.53 0.53 82 1009.5
20260506194148 18 204 30.6 48.3 0.00 0.53 0.53 81 1009.5
20260506193646 19 235 25.7 25.7 0.00 0.53 0.53 81 1009.7
20260506193143 19 269 19.3 41.8 0.00 0.53 0.53 82 1009.4
20260506192640 18 166 25.7 54.7 0.00 0.53 0.53 83 1009.4
20260506192136 18 209 17.7 25.7 0.00 0.53 0.53 85 1009.3
20260506191633 18 236 9.7 20.9 0.00 0.53 0.53 85 1009.3
20260506191129 18 219 11.3 27.4 0.00 0.53 0.53 86 1009.4
20260506190627 18 208 27.4 37.0 0.00 0.53 0.53 84 1009.7
20260506190123 18 195 20.9 25.7 0.00 0.53 0.53 86 1009.5
20260506185620 18 207 33.8 37.0 0.00 0.53 0.53 86 1009.6
20260506185116 18 202 25.7 48.3 0.00 0.53 0.53 86 1009.6
20260506184614 18 233 33.8 62.8 0.00 0.53 0.53 85 1009.5
20260506184111 17 218 62.8 64.4 0.00 0.53 0.53 86 1009.8
20260506183608 17 218 51.5 62.8 0.00 0.53 0.53 87 1009.9
20260506183104 17 212 33.8 61.2 0.00 0.53 0.53 87 1009.9
20260506182601 17 197 24.1 59.5 0.00 0.53 0.53 89 1009.9
20260506182058 17 238 33.8 64.4 0.00 0.53 0.53 89 1010.1
20260506181556 17 214 37.0 46.7 0.00 0.53 0.53 90 1010.1
20260506181053 16 209 30.6 35.4 0.00 0.53 0.53 91 1010.1
20260506180549 16 217 46.7 48.3 0.00 0.53 0.53 91 1010.1
20260506180046 16 211 17.7 32.2 0.00 0.53 0.53 91 1010.1
20260506175542 16 228 25.7 45.1 0.00 0.53 0.53 91 1010.0
20260506175039 16 212 43.5 54.7 0.00 0.53 0.53 90 1010.1
20260506174538 16 217 25.7 54.7 0.00 0.53 0.53 92 1010.3
20260506174033 16 192 24.1 49.9 0.00 0.53 0.53 92 1010.3
20260506173531 16 218 24.1 40.2 0.00 0.53 0.53 92 1010.2
20260506173028 16 251 25.7 37.0 0.00 0.53 0.53 92 1010.3
20260506172526 16 225 32.2 69.2 0.00 0.53 0.53 92 1009.9
20260506172021 16 255 19.3 46.7 0.00 0.53 0.53 93 1010.0
20260506171519 16 222 35.4 51.5 0.00 0.53 0.53 93 1010.3
20260506171017 16 253 29.0 46.7 0.00 0.53 0.53 93 1010.2
20260506170514 16 224 35.4 51.5 0.00 0.53 0.53 94 1010.2
20260506170006 16 253 32.2 62.8 0.00 0.53 0.53 93 1010.1
20260506165504 16 236 27.4 57.9 0.00 0.53 0.53 93 1010.1
20260506165000 16 231 45.1 62.8 0.00 0.53 0.53 93 1010.0
20260506164456 16 227 54.7 72.4 0.00 0.53 0.53 94 1010.3
20260506163954 16 230 33.8 61.2 0.00 0.53 0.53 94 1010.1
20260506163449 16 215 57.9 88.5 0.00 0.53 0.53 94 1010.1
20260506162944 16 221 62.8 75.6 0.00 0.53 0.53 95 1010.0
20260506162442 16 231 37.0 64.4 0.00 0.53 0.53 95 1010.3
20260506161939 16 226 49.9 57.9 0.00 0.53 0.53 95 1010.2
20260506161437 16 234 62.8 69.2 0.00 0.53 0.53 96 1010.3
20260506160934 16 232 27.4 51.5 0.00 0.53 0.53 96 1010.4
20260506160432 16 235 37.0 43.5 0.00 0.53 0.53 96 1010.1
20260506155929 16 222 43.5 57.9 0.05 0.53 0.53 96 1010.3
20260506155427 16 214 40.2 64.4 0.13 0.53 0.53 95 1010.3
20260506153548 15 210 51.5 86.9 0.13 0.51 0.51 95 1009.9
20260506153045 15 186 37.0 64.4 0.18 0.48 0.48 95 1010.1
20260506152542 15 220 37.0 66.0 0.18 0.48 0.48 95 1010.4
20260506152040 15 215 33.8 48.3 0.18 0.46 0.46 95 1010.6
20260506151538 15 214 43.5 46.7 0.23 0.46 0.46 95 1010.8
20260506151035 15 261 14.5 41.8 0.13 0.43 0.43 95 1010.9
20260506150531 15 200 29.0 40.2 0.18 0.41 0.41 95 1011.0
20260506150028 15 225 30.6 33.8 0.18 0.41 0.41 95 1011.1
20260506145525 15 258 29.0 43.5 0.18 0.38 0.38 94 1011.0
20260506145023 15 210 30.6 35.4 0.13 0.36 0.36 94 1011.5
20260506144519 15 205 27.4 32.2 0.13 0.36 0.36 94 1011.2
20260506144017 15 243 32.2 45.1 0.18 0.33 0.33 93 1011.3
20260506143514 16 228 40.2 48.3 0.18 0.33 0.33 93 1011.0
20260506143013 16 222 40.2 51.5 0.23 0.30 0.30 92 1011.1
20260506142510 16 247 27.4 91.7 0.18 0.28 0.28 92 1010.9
20260506142008 16 214 41.8 46.7 0.05 0.25 0.25 93 1010.8
20260506141505 16 214 48.3 56.3 0.23 0.25 0.25 92 1010.8
20260506141004 16 270 40.2 62.8 0.18 0.23 0.23 92 1010.8
20260506140500 16 212 57.9 66.0 0.23 0.23 0.23 92 1010.8
20260506135957 16 227 27.4 48.3 0.30 0.20 0.20 92 1010.5
20260506135454 16 216 49.9 49.9 0.36 0.18 0.18 91 1010.7
20260506134950 16 213 32.2 32.2 0.30 0.15 0.15 90 1010.8
20260506134446 16 225 29.0 43.5 0.18 0.13 0.13 89 1010.7
20260506133943 16 228 32.2 35.4 0.13 0.10 0.10 89 1011.1
20260506133440 16 225 25.7 27.4 0.00 0.10 0.10 89 1011.1
20260506132937 16 226 30.6 33.8 0.00 0.10 0.10 89 1011.0
20260506132434 16 202 20.9 30.6 0.00 0.10 0.10 89 1011.1
20260506131932 16 224 27.4 51.5 0.05 0.10 0.10 88 1010.8
20260506131428 16 220 48.3 48.3 0.05 0.08 0.08 88 1010.7
20260506130925 16 217 35.4 43.5 0.13 0.08 0.08 87 1010.9
20260506130421 16 201 20.9 25.7 0.05 0.08 0.08 88 1011.1
20260506125920 16 224 19.3 29.0 0.05 0.05 0.05 88 1011.2
20260506125418 16 215 16.1 25.7 0.00 0.05 0.05 87 1011.2
20260506124916 16 234 19.3 29.0 0.00 0.05 0.05 86 1011.1
20260506124413 16 212 17.7 27.4 0.05 0.05 0.05 86 1011.1
20260506123911 16 236 17.7 32.2 0.05 0.05 0.05 85 1011.2
20260506123408 16 201 19.3 27.4 0.05 0.05 0.05 85 1011.2
20260506122905 16 237 16.1 27.4 0.05 0.05 0.05 84 1011.4
20260506122402 16 224 14.5 29.0 0.00 0.03 0.03 83 1011.4
20260506121901 16 232 20.9 33.8 0.00 0.03 0.03 83 1011.4
20260506121357 16 240 14.5 32.2 0.05 0.03 0.03 83 1011.5
20260506120854 16 228 32.2 37.0 0.05 0.03 0.03 83 1011.3
20260506120351 16 228 27.4 33.8 0.00 0.03 0.03 83 1011.2
20260506115849 16 217 32.2 37.0 0.05 0.03 0.03 83 1010.9
20260506115347 16 217 29.0 41.8 0.05 0.03 0.03 83 1011.1
20260506114845 16 223 33.8 37.0 0.05 0.00 0.00 82 1011.0
20260506114342 16 223 20.9 33.8 0.05 0.00 0.00 82 1010.9
20260506113841 16 214 33.8 41.8 0.00 0.00 0.00 81 1010.8
20260506113338 16 206 12.9 37.0 0.00 0.00 0.00 81 1010.8
20260506112834 16 212 29.0 40.2 0.00 0.00 0.00 80 1010.8
20260506112332 16 219 29.0 46.7 0.00 0.00 0.00 80 1010.7
20260506111829 17 232 24.1 51.5 0.00 0.00 0.00 79 1010.7
20260506111327 17 219 17.7 51.5 0.00 0.00 0.00 78 1010.4
20260506110824 17 214 27.4 57.9 0.00 0.00 0.00 77 1010.5
20260506110321 17 222 32.2 57.9 0.00 0.00 0.00 76 1010.5
20260506105818 17 237 30.6 59.5 0.00 0.00 0.00 75 1010.5
20260506105315 17 220 33.8 62.8 0.00 0.00 0.00 74 1010.3
20260506104812 17 201 37.0 49.9 0.00 0.00 0.00 74 1010.3
20260506104310 17 208 30.6 78.9 0.00 0.00 0.00 74 1010.4
20260506103807 17 219 45.1 59.5 0.00 0.00 0.00 74 1010.4
20260506103305 17 213 61.2 66.0 0.00 0.00 0.00 73 1010.3
20260506102802 17 209 56.3 72.4 0.00 0.00 0.00 73 1010.3
20260506102300 17 217 40.2 72.4 0.00 0.00 0.00 73 1010.1
20260506101757 17 207 56.3 69.2 0.00 0.00 0.00 72 1010.1
20260506101253 17 219 37.0 49.9 0.00 0.00 0.00 72 1010.1
20260506100751 17 207 32.2 49.9 0.00 0.00 0.00 72 1010.2
20260506100249 17 216 45.1 48.3 0.00 0.00 0.00 71 1010.1
20260506095747 17 216 25.7 51.5 0.00 0.00 0.00 71 1010.0
20260506095244 17 216 43.5 45.1 0.00 0.00 0.00 71 1010.2
20260506094740 17 239 35.4 41.8 0.00 0.00 0.00 71 1010.0
20260506094239 17 191 30.6 59.5 0.00 0.00 0.00 70 1010.0
20260506093737 17 228 30.6 57.9 0.00 0.00 0.00 71 1010.0
20260506093234 17 211 32.2 40.2 0.00 0.00 0.00 70 1010.0
20260506092731 17 221 33.8 59.5 0.00 0.00 0.00 70 1010.0
20260506092229 17 216 35.4 51.5 0.00 0.00 0.00 69 1010.2
20260506091726 17 210 46.7 49.9 0.00 0.00 0.00 69 1009.9
20260506091224 17 216 56.3 57.9 0.00 0.00 0.00 69 1010.0
20260506090721 17 219 40.2 40.2 0.00 0.00 0.00 70 1010.3
20260506090218 17 218 25.7 33.8 0.00 0.00 0.00 69 1010.3
20260506085715 17 208 30.6 43.5 0.00 0.00 0.00 69 1010.4
20260506085211 17 238 16.1 27.4 0.00 0.00 0.00 68 1010.4
20260506084708 17 185 16.1 24.1 0.00 0.00 0.00 67 1010.3
20260506084204 17 200 12.9 19.3 0.00 0.00 0.00 68 1010.4
20260506083701 17 185 16.1 25.7 0.00 0.00 0.00 68 1010.5
20260506083159 17 184 11.3 12.9 0.00 0.00 0.00 68 1010.3
20260506082656 17 214 0.0 12.9 0.00 0.00 0.00 68 1010.3
20260506082150 17 158 14.5 16.1 0.00 0.00 0.00 66 1010.2
20260506081649 17 189 19.3 24.1 0.00 0.00 0.00 66 1010.2
20260506081146 17 196 12.9 20.9 0.00 0.00 0.00 67 1010.4
20260506080644 17 241 9.7 9.7 0.00 0.00 0.00 70 1010.2
20260506080140 17 258 0.0 16.1 0.00 0.00 0.00 68 1010.3
20260506073124 18 214 17.7 20.9 0.00 0.00 0.00 63 1010.4
20260506072620 18 217 16.1 27.4 0.00 0.00 0.00 62 1010.4
20260506072119 18 269 0.0 17.7 0.00 0.00 0.00 62 1010.5
20260506071616 18 219 24.1 32.2 0.00 0.00 0.00 61 1010.6
20260506071114 18 217 19.3 30.6 0.00 0.00 0.00 60 1010.7
20260506070610 18 225 17.7 27.4 0.00 0.00 0.00 60 1010.5
20260506070108 18 226 19.3 33.8 0.00 0.00 0.00 60 1010.5
20260506062045 18 217 16.1 30.6 0.00 0.00 0.00 59 1011.3
20260506061540 18 203 17.7 32.2 0.00 0.00 0.00 59 1011.0
20260506061038 18 213 17.7 24.1 0.00 0.00 0.00 59 1011.2
20260506060537 18 239 17.7 27.4 0.00 0.00 0.00 59 1011.2
20260506051005 18 201 14.5 35.4 0.00 0.00 0.00 56 1011.6
20260506050503 18 208 16.1 29.0 0.00 0.00 0.00 57 1011.5
20260506044953 18 238 20.9 30.6 0.00 0.00 0.00 56 1011.7
20260506044452 18 231 16.1 24.1 0.00 0.00 0.00 57 1011.6
20260506043948 18 249 16.1 25.7 0.00 0.00 0.00 55 1011.5
20260506043445 18 212 27.4 27.4 0.00 0.00 0.00 56 1011.7
20260506042943 18 213 27.4 32.2 0.00 0.00 0.00 55 1011.6
20260506042442 18 222 24.1 29.0 0.00 0.00 0.00 55 1011.6
20260506041940 18 218 32.2 33.8 0.00 0.00 0.00 54 1011.8
20260506041438 18 227 25.7 32.2 0.00 0.00 0.00 54 1011.6
20260506040935 18 219 25.7 33.8 0.00 0.00 0.00 55 1011.7
20260506040432 18 242 19.3 33.8 0.00 0.00 0.00 54 1011.7
20260506035928 18 216 25.7 35.4 0.00 0.00 0.00 54 1011.7
20260506035426 18 230 17.7 29.0 0.00 0.00 0.00 54 1011.7
20260506034922 18 228 24.1 25.7 0.00 0.00 0.00 53 1011.8
20260506034419 18 217 24.1 32.2 0.00 0.00 0.00 53 1011.9
20260506033916 18 217 20.9 33.8 0.00 0.00 0.00 53 1011.4
20260506033414 18 198 17.7 35.4 0.00 0.00 0.00 53 1011.5
20260506032910 18 206 17.7 27.4 0.00 0.00 0.00 53 1011.7
20260506032407 18 214 32.2 32.2 0.00 0.00 0.00 52 1011.7
20260506031904 18 217 12.9 24.1 0.00 0.00 0.00 51 1011.5
20260506031401 19 189 20.9 27.4 0.00 0.00 0.00 51 1011.7
20260506030859 18 197 12.9 25.7 0.00 0.00 0.00 50 1011.6
20260506030357 18 208 19.3 27.4 0.00 0.00 0.00 50 1011.6
20260506025853 19 239 16.1 17.7 0.00 0.00 0.00 50 1011.7
20260506025350 18 192 12.9 20.9 0.00 0.00 0.00 50 1011.6
20260506024847 18 206 19.3 24.1 0.00 0.00 0.00 52 1011.7
20260506024344 17 214 17.7 19.3 0.00 0.00 0.00 55 1011.8
20260506023840 18 221 0.0 11.3 0.00 0.00 0.00 54 1011.7
20260506023337 18 245 0.0 0.0 0.00 0.00 0.00 53 1011.6
20260506022834 18 251 0.0 24.1 0.00 0.00 0.00 51 1011.6
20260506022331 18 269 9.7 14.5 0.00 0.00 0.00 52 1011.7
20260506021829 18 245 0.0 0.0 0.00 0.00 0.00 51 1011.6